EZY13FR EHAM-EGGW

Flight info

Callsign EZY13FR
Flight time 0h 47m
Altitude 24000
Route IDRID M40 RINIS
Aircraft A20N/M-SDE2E3FGHIRWXY/LB1

Departure

Time 2026-04-29 12:24
Airport Amsterdam Airport Schiphol (EHAM)

Arrival

Time 2026-04-29 13:11
Airport London Luton Airport (EGGW)
Time Latitude Longitude Altitude Speed Heading
2026-04-29 11:33 52.31046 4.75515 -3 ft 0 kts 148°
2026-04-29 11:34 52.31026 4.75462 -2 ft 0 kts 148°
2026-04-29 12:06 52.31037 4.75450 -2 ft 2 kts 148°
2026-04-29 12:06 52.31049 4.75437 -2 ft 2 kts 149°
2026-04-29 12:07 52.31062 4.75425 -2 ft 2 kts 148°
2026-04-29 12:07 52.31075 4.75412 -2 ft 2 kts 148°
2026-04-29 12:07 52.31083 4.75403 -2 ft 1 kts 148°
2026-04-29 12:07 52.31094 4.75387 -2 ft 2 kts 112°
2026-04-29 12:08 52.31096 4.75363 -2 ft 2 kts 77°
2026-04-29 12:08 52.31093 4.75350 -2 ft 1 kts 58°
2026-04-29 12:08 52.31090 4.75341 -2 ft 0 kts 58°
2026-04-29 12:12 52.31090 4.75342 -2 ft 0 kts 58°
2026-04-29 12:12 52.31097 4.75361 -2 ft 4 kts 59°
2026-04-29 12:12 52.31118 4.75419 -2 ft 7 kts 57°
2026-04-29 12:12 52.31169 4.75462 -2 ft 10 kts
2026-04-29 12:13 52.31250 4.75455 -2 ft 13 kts 356°
2026-04-29 12:13 52.31345 4.75449 -2 ft 13 kts 356°
2026-04-29 12:13 52.31426 4.75441 -2 ft 12 kts 358°
2026-04-29 12:13 52.31502 4.75407 -2 ft 11 kts 303°
2026-04-29 12:14 52.31505 4.75272 -2 ft 13 kts 266°
2026-04-29 12:14 52.31500 4.75087 -2 ft 18 kts 267°
2026-04-29 12:14 52.31493 4.74883 -2 ft 17 kts 267°
2026-04-29 12:14 52.31487 4.74693 -2 ft 16 kts 268°
2026-04-29 12:15 52.31481 4.74515 -2 ft 15 kts 267°
2026-04-29 12:15 52.31476 4.74390 -2 ft 4 kts 267°
2026-04-29 12:15 52.31480 4.74324 -3 ft 9 kts 297°
2026-04-29 12:15 52.31555 4.74294 -3 ft 14 kts
2026-04-29 12:16 52.31664 4.74306 -3 ft 15 kts
2026-04-29 12:16 52.31767 4.74315 -3 ft 14 kts
2026-04-29 12:16 52.31865 4.74323 -3 ft 13 kts
2026-04-29 12:16 52.31955 4.74332 -4 ft 12 kts
2026-04-29 12:17 52.32024 4.74282 -4 ft 11 kts 292°
2026-04-29 12:17 52.32033 4.74148 -4 ft 13 kts 274°
2026-04-29 12:17 52.32038 4.73986 -4 ft 15 kts 272°
2026-04-29 12:17 52.32045 4.73790 -4 ft 18 kts 273°
2026-04-29 12:18 52.32052 4.73574 -4 ft 18 kts 273°
2026-04-29 12:18 52.32078 4.73377 -4 ft 17 kts 302°
2026-04-29 12:18 52.32156 4.73253 -4 ft 15 kts 317°
2026-04-29 12:18 52.32252 4.73119 -3 ft 19 kts 319°
2026-04-29 12:19 52.32350 4.72980 -3 ft 18 kts 319°
2026-04-29 12:19 52.32447 4.72845 -3 ft 18 kts 319°
2026-04-29 12:19 52.32540 4.72713 -3 ft 17 kts 320°
2026-04-29 12:19 52.32633 4.72583 -3 ft 18 kts 319°
2026-04-29 12:20 52.32725 4.72427 -5 ft 18 kts 313°
2026-04-29 12:20 52.32758 4.72363 -5 ft 5 kts 317°
2026-04-29 12:20 52.32777 4.72330 -3 ft 2 kts 298°
2026-04-29 12:20 52.32839 4.72215 -3 ft 18 kts 313°
2026-04-29 12:21 52.32932 4.72046 -3 ft 19 kts 311°
2026-04-29 12:21 52.33020 4.71880 -3 ft 19 kts 312°
2026-04-29 12:21 52.33109 4.71718 -3 ft 18 kts 312°
2026-04-29 12:21 52.33144 4.71534 -3 ft 15 kts 257°
2026-04-29 12:22 52.33139 4.71400 -3 ft 12 kts 308°
2026-04-29 12:22 52.33199 4.71289 -3 ft 13 kts 313°
2026-04-29 12:22 52.33259 4.71178 -4 ft 9 kts 311°
2026-04-29 12:22 52.33306 4.71089 -4 ft 10 kts 311°
2026-04-29 12:23 52.33359 4.70993 -4 ft 11 kts 314°
2026-04-29 12:23 52.33425 4.70930 -4 ft 12 kts
2026-04-29 12:23 52.33706 4.70957 -4 ft 76 kts
2026-04-29 12:23 52.34470 4.71024 -4 ft 139 kts
2026-04-29 12:24 52.35493 4.71097 428 ft 152 kts
2026-04-29 12:24 52.36557 4.71138 1025 ft 158 kts
2026-04-29 12:24 52.37633 4.71193 1717 ft 160 kts 12°
2026-04-29 12:24 52.38771 4.71292 2284 ft 170 kts 13°
2026-04-29 12:25 52.39979 4.71439 2808 ft 184 kts 12°
2026-04-29 12:25 52.41318 4.71605 3276 ft 204 kts 12°
2026-04-29 12:25 52.44310 4.70155 4240 ft 267 kts 321°
2026-04-29 12:26 52.45622 4.67924 4930 ft 282 kts 315°
2026-04-29 12:26 52.46610 4.65095 5784 ft 295 kts 288°
2026-04-29 12:26 52.46816 4.61774 6738 ft 298 kts 271°
2026-04-29 12:26 52.46787 4.58389 7644 ft 301 kts 270°
2026-04-29 12:27 52.46609 4.55030 8482 ft 305 kts 254°
2026-04-29 12:27 52.45558 4.52051 9337 ft 304 kts 221°
2026-04-29 12:27 52.43845 4.50123 10231 ft 302 kts 208°
2026-04-29 12:27 52.42166 4.48025 10887 ft 315 kts 226°
2026-04-29 12:28 52.40887 4.45033 11322 ft 333 kts 240°
2026-04-29 12:28 52.39778 4.41601 11758 ft 349 kts 243°
2026-04-29 12:28 52.38681 4.38051 12418 ft 356 kts 243°
2026-04-29 12:28 52.37553 4.34443 13195 ft 359 kts 242°
2026-04-29 12:29 52.36388 4.30799 13916 ft 364 kts 241°
2026-04-29 12:29 52.35209 4.27166 14631 ft 368 kts 241°
2026-04-29 12:29 52.34002 4.23482 15323 ft 372 kts 241°
2026-04-29 12:29 52.32787 4.19784 16030 ft 375 kts 241°
2026-04-29 12:30 52.31469 4.16094 16724 ft 378 kts 237°
2026-04-29 12:30 52.29983 4.12569 17433 ft 380 kts 232°
2026-04-29 12:30 52.28361 4.09136 18085 ft 384 kts 231°
2026-04-29 12:30 52.26714 4.05702 18743 ft 387 kts 231°
2026-04-29 12:31 52.25071 4.02284 19384 ft 390 kts 231°
2026-04-29 12:31 52.23389 3.98780 19996 ft 394 kts 231°
2026-04-29 12:31 52.21704 3.95274 20589 ft 397 kts 231°
2026-04-29 12:31 52.20002 3.91728 21184 ft 401 kts 231°
2026-04-29 12:32 52.18288 3.88160 21746 ft 404 kts 231°
2026-04-29 12:32 52.16546 3.84540 22328 ft 407 kts 231°
2026-04-29 12:32 52.14805 3.80923 22856 ft 411 kts 231°
2026-04-29 12:32 52.13020 3.77224 23382 ft 415 kts 231°
2026-04-29 12:33 52.11226 3.73510 23919 ft 418 kts 231°
2026-04-29 12:33 52.09443 3.69825 24263 ft 421 kts 231°
2026-04-29 12:33 52.07629 3.66083 24297 ft 419 kts 231°
2026-04-29 12:33 52.05839 3.62391 24294 ft 418 kts 231°
2026-04-29 12:34 52.04029 3.58665 24305 ft 418 kts 231°
2026-04-29 12:34 52.02228 3.54967 24305 ft 418 kts 231°
2026-04-29 12:34 52.00570 3.51113 24302 ft 419 kts 240°
2026-04-29 12:34 51.99411 3.46787 24309 ft 420 kts 253°
2026-04-29 12:35 51.98798 3.42237 24312 ft 419 kts 262°
2026-04-29 12:35 51.98383 3.37542 24309 ft 420 kts 263°
2026-04-29 12:35 51.97993 3.32834 24302 ft 421 kts 262°
2026-04-29 12:35 51.97586 3.28153 24300 ft 421 kts 262°
2026-04-29 12:36 51.97152 3.23452 24308 ft 421 kts 261°
2026-04-29 12:36 51.96710 3.18775 24234 ft 417 kts 262°
2026-04-29 12:36 51.96352 3.14197 23845 ft 413 kts 264°
2026-04-29 12:36 51.96052 3.09601 23330 ft 411 kts 264°
2026-04-29 12:37 51.95759 3.05012 22852 ft 408 kts 264°
2026-04-29 12:37 51.95470 3.00486 22425 ft 404 kts 264°
2026-04-29 12:37 51.95177 2.95978 22311 ft 403 kts 264°
2026-04-29 12:37 51.94885 2.91498 22313 ft 405 kts 264°
2026-04-29 12:38 51.94583 2.86918 22303 ft 405 kts 264°
2026-04-29 12:38 51.94285 2.82444 22305 ft 406 kts 264°
2026-04-29 12:38 51.93978 2.77855 22303 ft 407 kts 264°
2026-04-29 12:38 51.93673 2.73346 22300 ft 407 kts 264°
2026-04-29 12:39 51.93365 2.68806 22291 ft 407 kts 264°
2026-04-29 12:39 51.93055 2.64258 22296 ft 407 kts 264°
2026-04-29 12:39 51.92746 2.59744 22294 ft 406 kts 264°
2026-04-29 12:39 51.92435 2.55207 22287 ft 406 kts 264°
2026-04-29 12:40 51.92118 2.50644 22300 ft 406 kts 264°
2026-04-29 12:40 51.91805 2.46171 22305 ft 406 kts 264°
2026-04-29 12:40 51.91486 2.41620 22309 ft 406 kts 264°
2026-04-29 12:40 51.91167 2.37103 22312 ft 406 kts 264°
2026-04-29 12:41 51.90868 2.32557 22309 ft 407 kts 265°
2026-04-29 12:41 51.90709 2.27961 22305 ft 408 kts 267°
2026-04-29 12:41 51.90602 2.23370 22309 ft 408 kts 268°
2026-04-29 12:41 51.90505 2.18847 22316 ft 407 kts 268°
2026-04-29 12:42 51.90403 2.14262 22316 ft 407 kts 268°
2026-04-29 12:42 51.90298 2.09698 22311 ft 407 kts 267°
2026-04-29 12:42 51.90188 2.05124 22314 ft 408 kts 267°
2026-04-29 12:42 51.90074 2.00526 22307 ft 408 kts 267°
2026-04-29 12:43 51.89959 1.95950 22305 ft 409 kts 267°
2026-04-29 12:43 51.89913 1.91372 22299 ft 409 kts 275°
2026-04-29 12:43 51.90652 1.86988 22293 ft 406 kts 299°
2026-04-29 12:43 51.92270 1.83276 22310 ft 403 kts 313°
2026-04-29 12:44 51.94107 1.79839 22305 ft 403 kts 314°
2026-04-29 12:44 51.95943 1.76427 22304 ft 403 kts 313°
2026-04-29 12:44 51.97757 1.73008 22176 ft 399 kts 313°
2026-04-29 12:44 51.99528 1.69627 21734 ft 396 kts 313°
2026-04-29 12:45 52.01295 1.66219 21223 ft 395 kts 312°
2026-04-29 12:45 52.03043 1.62831 20746 ft 392 kts 312°
2026-04-29 12:45 52.04796 1.59423 20275 ft 389 kts 312°
2026-04-29 12:45 52.06516 1.56069 19832 ft 386 kts 313°
2026-04-29 12:46 52.08221 1.52741 19364 ft 384 kts 313°
2026-04-29 12:46 52.09917 1.49427 18892 ft 381 kts 313°
2026-04-29 12:46 52.11604 1.46124 18438 ft 379 kts 313°
2026-04-29 12:46 52.13294 1.42814 17949 ft 376 kts 313°
2026-04-29 12:47 52.14928 1.39519 17490 ft 375 kts 308°
2026-04-29 12:47 52.16137 1.35815 16988 ft 377 kts 292°
2026-04-29 12:47 52.16763 1.31634 16506 ft 377 kts 279°
2026-04-29 12:47 52.17090 1.27424 16034 ft 376 kts 276°
2026-04-29 12:48 52.17374 1.23234 15532 ft 374 kts 277°
2026-04-29 12:48 52.17672 1.19067 15050 ft 372 kts 277°
2026-04-29 12:48 52.17987 1.14895 14555 ft 370 kts 277°
2026-04-29 12:48 52.18306 1.10774 14346 ft 367 kts 277°
2026-04-29 12:49 52.18628 1.06629 14327 ft 371 kts 277°
2026-04-29 12:49 52.18952 1.02443 14328 ft 371 kts 277°
2026-04-29 12:49 52.19273 0.98275 14330 ft 371 kts 277°
2026-04-29 12:49 52.19589 0.94131 14331 ft 371 kts 277°
2026-04-29 12:50 52.19908 0.89955 14332 ft 371 kts 277°
2026-04-29 12:50 52.20223 0.85806 14334 ft 372 kts 277°
2026-04-29 12:50 52.20540 0.81637 14327 ft 372 kts 277°
2026-04-29 12:50 52.20853 0.77477 14318 ft 371 kts 277°
2026-04-29 12:51 52.21158 0.73376 14315 ft 356 kts 277°
2026-04-29 12:51 52.21449 0.69455 14317 ft 340 kts 277°
2026-04-29 12:51 52.21733 0.65635 14317 ft 338 kts 277°
2026-04-29 12:51 52.22010 0.61877 14226 ft 334 kts 277°
2026-04-29 12:52 52.22287 0.58114 13846 ft 334 kts 277°
2026-04-29 12:52 52.22560 0.54390 13423 ft 334 kts 277°
2026-04-29 12:52 52.22833 0.50645 13043 ft 333 kts 277°
2026-04-29 12:52 52.23104 0.46926 12682 ft 331 kts 277°
2026-04-29 12:53 52.23369 0.43256 12374 ft 327 kts 277°
2026-04-29 12:53 52.23632 0.39589 12329 ft 327 kts 277°
2026-04-29 12:53 52.23897 0.35880 12325 ft 328 kts 277°
2026-04-29 12:53 52.24160 0.32203 12325 ft 328 kts 276°
2026-04-29 12:54 52.24422 0.28487 12323 ft 328 kts 276°
2026-04-29 12:54 52.24680 0.24813 12321 ft 328 kts 276°
2026-04-29 12:54 52.24927 0.21304 12319 ft 327 kts 276°
2026-04-29 12:54 52.25176 0.17762 12317 ft 328 kts 276°
2026-04-29 12:55 52.25438 0.14001 12254 ft 325 kts 276°
2026-04-29 12:55 52.25689 0.10385 11920 ft 324 kts 276°
2026-04-29 12:55 52.25938 0.06761 11546 ft 323 kts 276°
2026-04-29 12:55 52.26189 0.03109 11161 ft 321 kts 276°
2026-04-29 12:56 52.26432 -0.00459 10940 ft 314 kts 276°
2026-04-29 12:56 52.26677 -0.03919 10772 ft 305 kts 278°
2026-04-29 12:56 52.27065 -0.07283 10645 ft 296 kts 284°
2026-04-29 12:56 52.27591 -0.10462 10486 ft 288 kts 286°
2026-04-29 12:57 52.27983 -0.13641 10158 ft 287 kts 268°
2026-04-29 12:57 52.27532 -0.16871 9833 ft 300 kts 239°
2026-04-29 12:57 52.26316 -0.19639 9597 ft 300 kts 224°
2026-04-29 12:57 52.24920 -0.22102 9307 ft 299 kts 221°
2026-04-29 12:58 52.23480 -0.24528 9049 ft 298 kts 221°
2026-04-29 12:58 52.22024 -0.26950 8804 ft 296 kts 221°
2026-04-29 12:58 52.20598 -0.29311 8554 ft 295 kts 221°
2026-04-29 12:58 52.19156 -0.31695 8352 ft 295 kts 221°
2026-04-29 12:59 52.17707 -0.34087 8303 ft 296 kts 221°
2026-04-29 12:59 52.16273 -0.36459 8314 ft 295 kts 221°
2026-04-29 12:59 52.14823 -0.38860 8306 ft 296 kts 221°
2026-04-29 12:59 52.13397 -0.41219 8302 ft 297 kts 221°
2026-04-29 13:00 52.11943 -0.43631 8295 ft 296 kts 221°
2026-04-29 13:00 52.10521 -0.45991 8291 ft 296 kts 221°
2026-04-29 13:00 52.09079 -0.48386 8295 ft 296 kts 221°
2026-04-29 13:00 52.07648 -0.50771 8301 ft 295 kts 221°
2026-04-29 13:01 52.06215 -0.53148 8303 ft 295 kts 221°
2026-04-29 13:01 52.04793 -0.55520 8151 ft 292 kts 221°
2026-04-29 13:01 52.03378 -0.57879 7741 ft 293 kts 221°
2026-04-29 13:01 52.01952 -0.60252 7345 ft 292 kts 221°
2026-04-29 13:02 52.00543 -0.62604 6969 ft 292 kts 221°
2026-04-29 13:02 51.99143 -0.64950 6601 ft 291 kts 221°
2026-04-29 13:02 51.97742 -0.67303 6241 ft 289 kts 220°
2026-04-29 13:02 51.96365 -0.69462 6062 ft 277 kts 210°
2026-04-29 13:03 51.94800 -0.71091 5828 ft 259 kts 202°
2026-04-29 13:03 51.93255 -0.72476 5573 ft 250 kts 201°
2026-04-29 13:03 51.91736 -0.73660 5401 ft 236 kts 186°
2026-04-29 13:03 51.90185 -0.73988 5255 ft 219 kts 173°
2026-04-29 13:04 51.88690 -0.74033 5091 ft 210 kts 171°
2026-04-29 13:04 51.87279 -0.74049 5056 ft 192 kts 171°
2026-04-29 13:04 51.85975 -0.74084 4954 ft 182 kts 170°
2026-04-29 13:04 51.84753 -0.74048 4765 ft 169 kts 156°
2026-04-29 13:05 51.83860 -0.73123 4411 ft 150 kts 120°
2026-04-29 13:05 51.83331 -0.71702 4102 ft 147 kts 112°
2026-04-29 13:05 51.82869 -0.70245 3951 ft 144 kts 111°
2026-04-29 13:05 51.82492 -0.68739 3945 ft 143 kts 97°
2026-04-29 13:06 51.82457 -0.67153 3952 ft 143 kts 86°
2026-04-29 13:06 51.82590 -0.65560 3858 ft 144 kts 81°
2026-04-29 13:06 51.82816 -0.63992 3671 ft 143 kts 77°
2026-04-29 13:06 51.83080 -0.62438 3479 ft 143 kts 76°
2026-04-29 13:07 51.83344 -0.60906 3292 ft 142 kts 76°
2026-04-29 13:07 51.83605 -0.59382 3109 ft 141 kts 76°
2026-04-29 13:07 51.83865 -0.57850 2921 ft 141 kts 76°
2026-04-29 13:07 51.84122 -0.56338 2739 ft 141 kts 76°
2026-04-29 13:08 51.84384 -0.54798 2548 ft 142 kts 75°
2026-04-29 13:08 51.84644 -0.53273 2364 ft 137 kts 75°
2026-04-29 13:08 51.84887 -0.51848 2180 ft 132 kts 76°
2026-04-29 13:08 51.85129 -0.50433 2048 ft 127 kts 76°
2026-04-29 13:09 51.85361 -0.49079 1873 ft 124 kts 76°
2026-04-29 13:09 51.85589 -0.47743 1699 ft 123 kts 75°
2026-04-29 13:09 51.85817 -0.46416 1536 ft 123 kts 76°
2026-04-29 13:09 51.86044 -0.45095 1367 ft 122 kts 76°
2026-04-29 13:10 51.86274 -0.43776 1206 ft 122 kts 76°
2026-04-29 13:10 51.86472 -0.42631 1072 ft 121 kts 75°
2026-04-29 13:10 51.86688 -0.41312 926 ft 121 kts 76°
2026-04-29 13:10 51.86918 -0.39991 765 ft 121 kts 75°
2026-04-29 13:11 51.87142 -0.38710 587 ft 119 kts 76°
2026-04-29 13:11 51.87359 -0.37445 525 ft 103 kts 75°
2026-04-29 13:11 51.87507 -0.36595 520 ft 53 kts 72°
2026-04-29 13:11 51.87589 -0.36120 515 ft 34 kts 75°
2026-04-29 13:12 51.87634 -0.35922 513 ft 11 kts 32°
2026-04-29 13:12 51.87716 -0.35938 512 ft 12 kts 343°
2026-04-29 13:12 51.87781 -0.36022 512 ft 13 kts 283°
2026-04-29 13:12 51.87767 -0.36169 513 ft 13 kts 256°
2026-04-29 13:13 51.87743 -0.36313 515 ft 13 kts 254°
2026-04-29 13:13 51.87719 -0.36453 516 ft 13 kts 254°
2026-04-29 13:13 51.87691 -0.36614 518 ft 18 kts 255°
2026-04-29 13:13 51.87653 -0.36836 520 ft 20 kts 253°
2026-04-29 13:14 51.87614 -0.37060 521 ft 20 kts 253°
2026-04-29 13:14 51.87579 -0.37269 522 ft 16 kts 260°
2026-04-29 13:14 51.87609 -0.37429 522 ft 15 kts 317°
2026-04-29 13:14 51.87690 -0.37538 521 ft 15 kts 306°
2026-04-29 13:15 51.87735 -0.37685 521 ft 14 kts 295°
2026-04-29 13:15 51.87778 -0.37831 521 ft 13 kts 295°
2026-04-29 13:15 51.87826 -0.37956 522 ft 12 kts 316°
2026-04-29 13:15 51.87904 -0.38011 522 ft 11 kts 355°
2026-04-29 13:16 51.87970 -0.37987 522 ft 7 kts 29°
2026-04-29 13:16 51.87978 -0.37941 522 ft 5 kts 124°
2026-04-29 13:16 51.87961 -0.37904 521 ft 1 kts 126°
2026-04-29 13:16 51.87958 -0.37897 521 ft 0 kts 127°